#timestamp,LO_Frequency,Hit,StdDev 
1656187215.5,286047000.8,N
1656187235.4,286046998.1,N
1656187255.2,286047000.7,N
1656187275.0,286046998.3,N
1656187275.9,286046998.3,N
1656187295.8,286047000.4,N
1656187315.6,286046998.2,N
1656187335.4,286047001.1,N
1656187355.3,286046998.1,N
1656187375.1,286046998.4,N
1656187395.9,286046999.0,N
1656187415.7,286046997.2,N
1656187435.5,286046997.2,N
1656187455.4,286046996.7,N
1656187475.2,286046997.3,N
1656187495.0,286046997.5,N
1656187495.9,286046997.5,N
1656187515.8,286046997.2,N
1656187535.6,286046997.6,N
1656187555.5,286046997.7,N
1656187575.3,286046998.0,N
1656187595.1,286046995.3,N
1656187615.9,286046997.7,N
1656187635.7,286046995.4,Y
1656187655.5,286046997.8,P
1656187675.4,286046998.0,P
1656187695.2,286046996.6,P
1656187715.1,286046996.7,Y
1656187716.0,286046996.7,P
1656187735.8,286046998.1,P
1656187755.6,286046999.3,N
1656187775.5,286046999.2,N
1656187795.3,286047000.6,N
1656187815.1,286046998.6,N
1656187835.9,286046998.2,N
1656187855.7,286047000.4,N
1656187875.6,286047002.0,N
1656187895.4,286047000.2,N
1656187915.2,286047000.0,N
1656187935.1,286047002.7,N
1656187936.0,286047002.7,N
1656187955.8,286047002.6,N
1656187975.6,286047002.5,N
1656187995.5,286046999.7,N
1656188015.3,286047002.5,N
1656188035.2,286047002.2,N
1656188055.9,286047001.6,N
1656188075.7,286047002.5,N
1656188095.6,286047001.4,N
1656188115.4,286047002.1,N
1656188135.2,286047000.2,N
1656188155.1,286047000.0,N
1656188156.0,286047000.0,N
1656188175.8,286047000.2,N
1656188195.7,286047002.7,N
1656188215.5,286047000.7,N
1656188235.3,286047002.6,N
1656188255.2,286047002.8,N
1656188275.0,286047000.2,N
1656188275.9,286047000.2,N
1656188295.7,286047000.6,N
1656188315.6,286047000.5,N
1656188335.4,286046998.7,N
1656188355.3,286046998.7,N
1656188375.1,286047000.3,N
1656188376.0,286047000.3,N
1656188395.8,286047000.7,N
1656188415.7,286047000.2,N
1656188435.5,286047000.6,N
1656188455.3,286046998.2,N
1656188475.2,286046998.2,N
1656188495.0,286047000.5,N
1656188495.9,286047000.5,N
1656188515.8,286047000.0,N
1656188535.6,286047000.0,N
1656188555.4,286047002.3,N
1656188575.3,286047002.3,N
1656188595.1,286047001.9,N
1656188615.8,286047002.3,N
1656188635.7,286047002.5,N
1656188655.5,286047001.6,N
1656188675.4,286047002.2,N
1656188695.2,286047001.4,N
1656188715.0,286047001.6,N
1656188715.9,286047001.6,N
1656188735.8,286047002.4,N
1656188755.6,286047002.3,N
1656188775.4,286047002.8,N
1656188795.3,286047000.0,N
1656188815.1,286046999.7,N
1656188835.9,286047001.0,N
1656188855.7,286046999.9,N
1656188875.5,286047002.3,N
1656188895.4,286047001.6,N
1656188915.2,286047000.1,N
1656188935.0,286047002.1,N
1656188935.9,286047002.1,N
1656188955.8,286047001.9,N
1656188975.6,286047002.8,N
1656188995.5,286047002.2,N
1656189015.3,286047002.2,N
1656189035.1,286047002.7,N
1656189055.9,286047002.4,N
1656189075.7,286047002.3,N
1656189095.5,286047004.0,Y
1656189115.4,286046999.8,P
1656189135.2,286047002.6,N
1656189155.1,286047002.6,N
1656189156.0,286047002.6,N
1656189175.8,286047000.1,N
1656189195.6,286046999.7,N
1656189215.5,286047000.2,N
1656189235.3,286047000.7,N
1656189255.1,286046998.6,N
1656189275.9,286046998.3,N
1656189295.7,286047001.2,N
1656189315.5,286047000.4,N
1656189335.4,286046998.1,N
1656189355.2,286046998.3,N
1656189375.1,286046998.3,N
1656189376.0,286046998.3,N
1656189395.8,286046998.2,N
1656189415.6,286047000.3,N
1656189435.5,286047000.9,N
1656189455.3,286047002.4,N
1656189475.1,286046999.7,N
1656189495.9,286047000.7,N
1656189515.7,286047001.0,N
1656189535.6,286047000.2,N
1656189555.4,286047000.5,N
1656189575.2,286046998.1,N
1656189595.1,286047000.8,N
1656189596.0,286047000.8,N
1656189615.8,286047000.0,N
1656189635.6,286046999.7,N
1656189655.5,286047000.4,N
1656189675.3,286047002.7,N
1656189695.2,286046999.9,N
1656189715.9,286047000.5,N
1656189735.7,286047000.0,N
1656189755.6,286047001.6,N
1656189775.4,286047002.2,N
1656189795.2,286047002.5,N
1656189815.1,286047002.3,N
1656189816.0,286047002.3,N
1656189835.8,286047002.8,N
1656189855.7,286046999.7,N
1656189875.5,286047002.4,N
1656189895.3,286047002.3,N
1656189915.2,286047001.8,N
1656189935.9,286047001.9,N
1656189955.7,286047002.2,N
1656189975.6,286047002.1,N
1656189995.4,286047001.7,N
1656190015.2,286047002.5,N
1656190035.1,286047001.3,N
1656190036.0,286047001.3,N
1656190055.8,286047003.5,Y
1656190075.7,286047002.3,P
1656190095.5,286047002.7,P
1656190115.3,286047002.5,P
1656190135.2,286047002.5,Y
1656190155.0,286047000.8,P
1656190155.9,286047000.8,N
1656190175.8,286047000.2,N
1656190195.6,286047000.9,N
1656190215.4,286046998.8,N
1656190235.3,286047000.5,N
1656190255.1,286047000.3,N
1656190275.8,286047001.2,N
1656190295.7,286046999.9,N
1656190315.5,286047000.9,N
1656190335.3,286047000.1,N
1656190355.2,286047002.8,Y
1656190375.0,286047000.8,P
1656190375.9,286047000.8,P
1656190395.8,286046998.2,P
1656190415.6,286047000.8,N
1656190435.4,286047001.2,N
1656190455.3,286047000.8,N
1656190475.1,286047001.1,N
1656190495.9,286047000.7,N
1656190515.7,286046996.5,Y
1656190535.5,286046999.1,P
1656190555.4,286046998.3,N
1656190575.2,286047001.1,N
1656190595.0,286047000.5,N
1656190595.9,286047000.5,N
1656190615.8,286046999.9,N
1656190635.6,286047000.1,N
1656190655.4,286047001.0,N
1656190675.3,286047000.0,N
1656190695.1,286047002.6,Y
1656190715.9,286046999.7,P
1656190735.7,286046999.8,N
1656190755.5,286047000.1,N
1656190775.4,286047000.4,N
1656190795.2,286047000.2,N
